Terminal Aerodrome Forecast
Issued by NWS Denver/Boulder, CO

Home | Current Version | Previous Version | Text Only | Print | Product List | Glossary On
Versions: 1 2 3 4 5 6 7 8 9 10 11 12 13 14 15 16 17 18 19 20 21 22 23 24 25 26 27 28 29 30 31 32 33 34 35 36 37 38 39 40 41 42 43 44 45 46 47 48 49 50
000
FTUS45 KBOU 261120
TAFDEN
TAF
KDEN 261120Z 2612/2718 08006KT P6SM VCSH SCT020 OVC035
      TEMPO 2612/2614 6SM -SN BKN020
     FM261500 14006KT P6SM SCT015 SCT060
     FM261800 08006KT P6SM FEW060 SCT110
     FM270200 21008KT P6SM FEW140
     FM270600 22012KT P6SM FEW200=

USA.gov is the U.S. government's official web portal to all federal, state and local government web resources and services.